カタログに戻る

COSMOS 1382 DEB

運用中HEO
NORAD 27905·DEBRIS·🇷🇺 Russia

打ち上げ Jun 25, 1982 から Plesetsk Cosmodrome

Loading…

次のパス (今後24時間)

TLE

最新Source: Space-Track

元期: Sep 14, 2026, 17:45 UTC

1 27905U 82064G   26257.74023499 -.00000085  00000-0  00000-0 0  9997
2 27905  62.1752 156.3312 7266429  40.4278 357.5719  2.00090414186675

AllMySatでCOSMOS 1382 DEBをリアルタイム追跡

Download on the App Store